This is the latest recevied weather packets stored in our database for station/object KB4MOX. If no packets are shown the sender has not sent any weather packets the latest 10 day(s).
| Time | Temp. | Humidity | Pressure | Rain* | Wind** | Luminosity | Snow |
|---|---|---|---|---|---|---|---|
| 1787567179 | 22.78° C | 69% | 1015.5 hPa | 0 mm | - | 0 W/m² | - |
| 1787566873 | 22.78° C | 69% | 1015.4 hPa | 0 mm | - | 0 W/m² | - |
| 1787566568 | 22.22° C | 69% | 1015.4 hPa | 0 mm | - | 0 W/m² | - |
| 1787566263 | 22.22° C | 70% | 1015.4 hPa | 0 mm | - | 0 W/m² | - |
| 1787565959 | 22.22° C | 69% | 1015.4 hPa | 0 mm | - | 0 W/m² | - |
| 1787565654 | 22.78° C | 70% | 1015.2 hPa | 0 mm | - | 0 W/m² | - |
| 1787565350 | 22.78° C | 68% | 1015.3 hPa | 0 mm | - | 0 W/m² | - |
| 1787565047 | 22.78° C | 68% | 1015.1 hPa | 0 mm | - | 0 W/m² | - |
| 1787564743 | 22.78° C | 69% | 1015.2 hPa | 0 mm | - | 0 W/m² | - |
| 1787564443 | 22.78° C | 68% | 1015.4 hPa | 0 mm | - | 0 W/m² | - |
| 1787564137 | 22.78° C | 68% | 1015.2 hPa | 0 mm | - | 0 W/m² | - |
| 1787563833 | 22.78° C | 69% | 1015.1 hPa | 0 mm | - | 0 W/m² | - |
| 1787563529 | 22.78° C | 69% | 1015.3 hPa | 0 mm | - | 0 W/m² | - |
| 1787563228 | 22.22° C | 70% | 1015.3 hPa | 0 mm | - | 0 W/m² | - |
| 1787562924 | 22.22° C | 71% | 1015.4 hPa | 0 mm | - | 0 W/m² | - |
| 1787562620 | 21.67° C | 73% | 1015.3 hPa | 0 mm | - | 0 W/m² | - |
| 1787562316 | 21.67° C | 73% | 1015.4 hPa | 0 mm | - | 0 W/m² | - |
| 1787562012 | 21.67° C | 74% | 1015.3 hPa | 0 mm | - | 0 W/m² | - |
| 1787561709 | 21.67° C | 76% | 1015.3 hPa | 0 mm | - | 0 W/m² | - |
| 1787561405 | 21.67° C | 76% | 1015.5 hPa | 0 mm | - | 0 W/m² | - |
| 1787561101 | 21.67° C | 75% | 1015.3 hPa | 0 mm | - | 0 W/m² | - |
| 1787560795 | 22.22° C | 74% | 1015.3 hPa | 0 mm | - | 0 W/m² | - |
| 1787560491 | 22.22° C | 74% | 1015.3 hPa | 0 mm | - | 0 W/m² | - |
| 1787560187 | 22.78° C | 71% | 1015.3 hPa | 0 mm | - | 0 W/m² | - |
| 1787559884 | 22.78° C | 73% | 1015.1 hPa | 0 mm | - | 0 W/m² | - |
* Rain latest hour (hover to see other rain measurements)
** Current wind speed in m/s (hover to see current wind gust speed)